Location: Gourdan-Polignan
(43.0709°N, 0.5748°E)
Time: 04:26:34
(UTC+00:00)

SL-08 R/B - Pass Details

Date: 15 May 2026
Orbit: 666 x 729 km, 98.5° (Epoch: 6 June)

Event Time Altitude Azimuth Distance (km) Brightness Sun altitude
Rises 19:43:11 0° 24° (NNE) 3,120 6.8 -5.4°
Reaches altitude 10° 19:45:44 10° 35° (NE) 2,185 5.9 -5.8°
Maximum altitude 19:49:55 30° 96° (E) 1,256 4.2 -6.4°
Drops below altitude 10° 19:54:00 10° 157° (SSE) 2,135 5.3 -7.0°
Sets 19:56:27 0° 168° (SSE) 3,036 6.2 -7.4°
Enters shadow 19:56:29 - 168° (SSE) 3,046 6.2 -7.4°
